GW1054 Weather Reports


time (UTC)temp
C
wind
direction
speed
KPH
gust
KPH
rain 1hr
cm
rain 24hr
cm
rain mn
cm
humidity
%
barometer
mb
20260504044552 11 0 0.0 1.6 0.00 0.08 0.08 77 1005.5
20260504043047 11 0 0.0 1.6 0.00 0.08 0.08 77 1005.5
20260504041542 11 134 0.0 1.6 0.00 0.08 0.08 77 1005.5
20260504040057 11 0 0.0 0.0 0.00 0.08 0.08 77 1005.5
20260504034557 11 0 0.0 0.0 0.00 0.08 0.08 76 1005.5
20260504033119 11 0 0.0 0.0 0.00 0.08 0.08 75 1005.6
20260504031546 12 0 0.0 0.0 0.00 0.08 0.08 73 1005.6
20260504030047 12 0 0.0 0.0 0.00 0.08 0.08 71 1005.6
20260504024544 12 0 0.0 0.0 0.00 0.08 0.08 71 1005.6
20260504023100 12 0 0.0 0.0 0.00 0.08 0.08 70 1005.7
20260504021548 13 0 0.0 0.0 0.00 0.08 0.08 68 1005.6
20260504020056 13 0 0.0 0.0 0.00 0.08 0.08 67 1005.4
20260504014550 13 0 0.0 0.0 0.00 0.08 0.08 66 1005.4
20260504013049 14 0 0.0 0.0 0.00 0.08 0.08 65 1005.4
20260504011542 15 0 0.0 0.0 0.00 0.08 0.08 64 1005.3
20260504010052 16 0 0.0 0.0 0.00 0.08 0.08 63 1005.1
20260504004600 17 0 0.0 3.2 0.00 0.08 0.08 56 1005.0
20260504003046 18 0 0.0 1.6 0.00 0.08 0.08 53 1005.1
20260504001549 19 0 0.0 1.6 0.00 0.08 0.08 51 1005.1
20260504000046 20 0 0.0 1.6 0.00 0.08 0.08 50 1005.1
20260503234546 20 336 0.0 3.2 0.00 0.08 0.08 51 1005.1
20260503233050 20 288 0.0 4.8 0.00 0.08 0.08 50 1005.1
20260503231548 21 289 1.6 3.2 0.00 0.08 0.08 46 1005.2
20260503230054 21 292 1.6 9.7 0.00 0.08 0.08 45 1005.3
20260503224546 21 321 4.8 11.3 0.00 0.08 0.08 42 1005.5
20260503223049 21 331 1.6 4.8 0.00 0.08 0.08 42 1005.6
20260503221544 21 275 1.6 9.7 0.00 0.08 0.08 44 1005.6
20260503220051 21 270 3.2 9.7 0.00 0.08 0.08 42 1005.6
20260503214547 21 254 3.2 8.0 0.00 0.08 0.08 46 1005.6
20260503213100 21 344 3.2 8.0 0.00 0.08 0.08 44 1005.7
20260503211546 21 273 1.6 16.1 0.00 0.08 0.08 47 1005.7
20260503210054 21 249 1.6 11.3 0.00 0.08 0.08 47 1006.1
20260503204550 21 235 1.6 6.4 0.00 0.08 0.08 46 1006.4
20260503203043 21 265 3.2 11.3 0.00 0.08 0.08 46 1006.6
20260503201548 20 288 3.2 12.9 0.00 0.08 0.08 51 1006.8
20260503200057 20 274 3.2 9.7 0.00 0.08 0.08 48 1007.1
20260503194548 18 242 3.2 19.3 0.00 0.08 0.08 48 1007.4
20260503193052 19 310 1.6 22.5 0.00 0.08 0.08 49 1007.6
20260503191543 18 285 3.2 11.3 0.00 0.08 0.08 50 1007.9
20260503190041 17 136 9.7 29.0 0.00 0.08 0.08 51 1008.2
20260503184551 16 152 6.4 33.8 0.00 0.08 0.08 53 1008.3
20260503183102 17 137 4.8 22.5 0.00 0.08 0.08 50 1008.3
20260503181547 16 257 8.0 25.7 0.03 0.08 0.08 50 1008.3
20260503180048 16 99 4.8 19.3 0.03 0.08 0.08 51 1008.8
20260503174543 15 244 16.1 29.0 0.03 0.08 0.08 53 1008.9
20260503173108 15 109 16.1 29.0 0.03 0.08 0.08 56 1009.2
20260503171550 15 221 9.7 25.7 0.00 0.05 0.05 60 1009.8
20260503081550 5 0 0.0 0.0 0.00 0.03 0.00 69 1014.0
20260503071547 6 0 0.0 0.0 0.00 0.03 0.00 67 1014.0